TimeCDT,TemperatureF,Dew PointF,Humidity,Sea Level PressureIn,VisibilityMPH,Wind Direction,Wind SpeedMPH,Gust SpeedMPH,PrecipitationIn,Events,Conditions,WindDirDegrees,DateUTC
12:04 AM,66.2,64.4,94,29.83,8.0,South,8.1,-,0.00,Rain,Light Rain,190,2013-05-22 05:04:00
12:53 AM,66.0,64.0,93,29.79,10.0,SSW,8.1,-,0.02,,Overcast,210,2013-05-22 05:53:00
1:53 AM,66.0,64.9,96,29.75,10.0,SSW,8.1,-,0.01,Rain,Light Rain,200,2013-05-22 06:53:00
2:53 AM,66.0,64.0,93,29.73,10.0,South,3.5,-,0.02,Rain,Light Rain,190,2013-05-22 07:53:00
3:20 AM,66.2,64.4,94,29.79,10.0,WSW,10.4,-,0.00,,Overcast,250,2013-05-22 08:20:00
3:38 AM,64.4,62.6,94,29.78,10.0,WSW,6.9,-,0.00,,Overcast,250,2013-05-22 08:38:00
3:53 AM,64.9,63.0,93,29.77,10.0,South,3.5,-,0.00,,Mostly Cloudy,190,2013-05-22 08:53:00
4:53 AM,64.0,62.1,93,29.78,10.0,South,3.5,-,N/A,,Partly Cloudy,190,2013-05-22 09:53:00
5:53 AM,64.0,62.1,93,29.78,10.0,SSW,5.8,-,N/A,,Mostly Cloudy,210,2013-05-22 10:53:00
6:35 AM,64.4,62.6,94,29.78,10.0,South,5.8,-,N/A,,Overcast,180,2013-05-22 11:35:00
6:53 AM,64.0,63.0,96,29.78,10.0,SSW,6.9,-,N/A,,Overcast,210,2013-05-22 11:53:00
7:28 AM,64.4,62.6,94,29.79,10.0,SSW,8.1,17.3,N/A,,Mostly Cloudy,210,2013-05-22 12:28:00
7:53 AM,66.0,63.0,90,29.78,10.0,SW,11.5,-,N/A,,Mostly Cloudy,230,2013-05-22 12:53:00
8:16 AM,68.0,62.6,83,29.79,10.0,WSW,11.5,19.6,N/A,,Mostly Cloudy,240,2013-05-22 13:16:00
8:26 AM,69.8,64.4,83,29.80,10.0,SW,9.2,19.6,N/A,,Overcast,230,2013-05-22 13:26:00
8:38 AM,68.0,62.6,83,29.80,10.0,SW,12.7,19.6,N/A,,Overcast,230,2013-05-22 13:38:00
8:53 AM,68.0,63.0,84,29.80,10.0,WSW,12.7,21.9,N/A,,Overcast,240,2013-05-22 13:53:00
9:27 AM,69.8,64.4,83,29.81,10.0,WSW,15.0,23.0,N/A,,Overcast,250,2013-05-22 14:27:00
9:53 AM,68.0,62.1,81,29.81,10.0,WSW,16.1,-,N/A,,Overcast,250,2013-05-22 14:53:00
10:30 AM,68.0,62.6,83,29.83,10.0,WSW,12.7,23.0,N/A,,Overcast,240,2013-05-22 15:30:00
10:53 AM,69.1,62.1,78,29.83,10.0,WSW,12.7,-,N/A,,Overcast,240,2013-05-22 15:53:00
11:53 AM,72.0,62.1,71,29.83,10.0,WSW,16.1,23.0,N/A,,Mostly Cloudy,240,2013-05-22 16:53:00
12:28 PM,73.4,62.6,69,29.84,10.0,SW,13.8,19.6,N/A,,Overcast,230,2013-05-22 17:28:00
12:36 PM,73.4,60.8,65,29.84,10.0,WSW,16.1,-,N/A,,Overcast,240,2013-05-22 17:36:00
12:53 PM,73.9,61.0,64,29.82,10.0,WSW,12.7,-,N/A,,Overcast,240,2013-05-22 17:53:00
1:53 PM,75.9,61.0,60,29.81,10.0,WSW,16.1,20.7,N/A,,Partly Cloudy,240,2013-05-22 18:53:00
2:53 PM,75.9,62.1,62,29.81,10.0,SW,9.2,20.7,N/A,,Partly Cloudy,230,2013-05-22 19:53:00
3:53 PM,77.0,62.1,60,29.79,10.0,WSW,11.5,18.4,N/A,,Partly Cloudy,240,2013-05-22 20:53:00
4:53 PM,75.9,61.0,60,29.80,10.0,WSW,11.5,-,N/A,,Mostly Cloudy,240,2013-05-22 21:53:00
5:53 PM,75.0,61.0,62,29.79,10.0,WSW,10.4,-,N/A,,Scattered Clouds,250,2013-05-22 22:53:00
6:53 PM,73.9,59.0,59,29.79,10.0,WSW,10.4,-,N/A,,Clear,240,2013-05-22 23:53:00
7:53 PM,72.0,60.1,66,29.81,10.0,SW,6.9,-,N/A,,Clear,230,2013-05-23 00:53:00
8:53 PM,69.1,59.0,70,29.82,10.0,SW,4.6,-,N/A,,Clear,230,2013-05-23 01:53:00
9:53 PM,68.0,60.1,76,29.83,10.0,Calm,Calm,-,N/A,,Clear,0,2013-05-23 02:53:00
10:53 PM,66.9,60.1,79,29.84,10.0,SSW,6.9,-,N/A,,Clear,210,2013-05-23 03:53:00
11:53 PM,68.0,61.0,78,29.84,10.0,SW,6.9,-,N/A,,Partly Cloudy,220,2013-05-23 04:53:00